| time (UTC) | temp F | wind direction | speed MPH | gust MPH | rain 1hr in | rain 24hr in | rain mn in | humidity % | barometer mb |
| 20260505114214 | 74 | 47 | 1.0 | 4.0 | 0.00 | 0.18 | 0.00 | 87 | 1015.2 |
| 20260505113504 | 74 | 47 | 2.0 | 4.0 | 0.00 | 0.42 | 0.00 | 88 | 1015.1 |
| 20260505113215 | 74 | 42 | 1.0 | 3.0 | 0.00 | 0.42 | 0.00 | 88 | 1015.1 |
| 20260505112504 | 74 | 44 | 0.0 | 3.0 | 0.00 | 0.42 | 0.00 | 88 | 1015.0 |
| 20260505112004 | 74 | 42 | 1.0 | 3.0 | 0.00 | 0.42 | 0.00 | 87 | 1015.0 |
| 20260505111504 | 74 | 48 | 2.0 | 4.0 | 0.00 | 0.42 | 0.00 | 87 | 1015.0 |
| 20260505111217 | 74 | 55 | 2.0 | 13.0 | 0.00 | 0.42 | 0.00 | 86 | 1015.0 |
| 20260505110504 | 74 | 77 | 1.0 | 13.0 | 0.00 | 0.42 | 0.00 | 85 | 1015.0 |
| 20260505102004 | 74 | 51 | 2.0 | 10.0 | 0.00 | 0.42 | 0.00 | 83 | 1014.6 |
| 20260505101505 | 74 | 49 | 2.0 | 8.0 | 0.00 | 0.42 | 0.00 | 83 | 1014.6 |
| 20260505101003 | 74 | 49 | 2.0 | 9.0 | 0.00 | 0.42 | 0.00 | 83 | 1014.6 |
| 20260505100504 | 74 | 52 | 4.0 | 9.0 | 0.00 | 0.42 | 0.00 | 83 | 1014.5 |
| 20260505100214 | 74 | 55 | 2.0 | 9.0 | 0.00 | 0.42 | 0.00 | 84 | 1014.5 |
| 20260505095503 | 73 | 57 | 1.0 | 9.0 | 0.00 | 0.42 | 0.00 | 84 | 1014.3 |
| 20260505095004 | 73 | 59 | 1.0 | 7.0 | 0.00 | 0.42 | 0.00 | 84 | 1014.3 |
| 20260505094504 | 73 | 60 | 3.0 | 7.0 | 0.00 | 0.42 | 0.00 | 84 | 1014.2 |
| 20260505094003 | 73 | 57 | 1.0 | 6.0 | 0.00 | 0.42 | 0.00 | 84 | 1014.1 |
| 20260505093504 | 73 | 57 | 1.0 | 9.0 | 0.00 | 0.42 | 0.00 | 83 | 1014.2 |
| 20260505093004 | 74 | 60 | 3.0 | 9.0 | 0.00 | 0.42 | 0.00 | 83 | 1014.2 |
| 20260505092503 | 74 | 61 | 3.0 | 9.0 | 0.00 | 0.42 | 0.00 | 83 | 1014.1 |
| 20260505092003 | 74 | 53 | 3.0 | 9.0 | 0.00 | 0.42 | 0.00 | 83 | 1014.0 |
| 20260505091503 | 74 | 50 | 1.0 | 11.0 | 0.00 | 0.42 | 0.00 | 83 | 1014.1 |
| 20260505091213 | 74 | 53 | 3.0 | 11.0 | 0.00 | 0.42 | 0.00 | 83 | 1014.2 |
| 20260505090716 | 74 | 53 | 3.0 | 9.0 | 0.00 | 0.42 | 0.00 | 83 | 1014.0 |
| 20260505090004 | 74 | 55 | 5.0 | 10.0 | 0.00 | 0.42 | 0.00 | 83 | 1014.0 |
| 20260505085504 | 74 | 61 | 4.0 | 9.0 | 0.00 | 0.42 | 0.00 | 83 | 1014.0 |
| 20260505085215 | 74 | 63 | 3.0 | 11.0 | 0.00 | 0.42 | 0.00 | 83 | 1014.0 |
| 20260505084503 | 74 | 64 | 5.0 | 11.0 | 0.00 | 0.42 | 0.00 | 83 | 1014.0 |
| 20260505084004 | 74 | 65 | 3.0 | 7.0 | 0.00 | 0.42 | 0.00 | 84 | 1014.0 |
| 20260505083504 | 74 | 63 | 2.0 | 7.0 | 0.00 | 0.42 | 0.00 | 84 | 1013.9 |
| 20260505083217 | 74 | 58 | 2.0 | 7.0 | 0.00 | 0.42 | 0.00 | 84 | 1013.9 |
| 20260505082504 | 74 | 56 | 2.0 | 8.0 | 0.00 | 0.42 | 0.00 | 84 | 1014.0 |
| 20260505082004 | 74 | 59 | 5.0 | 8.0 | 0.00 | 0.42 | 0.00 | 84 | 1013.9 |
| 20260505081504 | 74 | 58 | 2.0 | 9.0 | 0.00 | 0.42 | 0.00 | 84 | 1014.0 |
| 20260505081214 | 74 | 57 | 1.0 | 9.0 | 0.00 | 0.42 | 0.00 | 84 | 1014.0 |
| 20260505080505 | 74 | 59 | 2.0 | 8.0 | 0.00 | 0.42 | 0.00 | 84 | 1014.0 |
| 20260505080004 | 74 | 65 | 3.0 | 11.0 | 0.00 | 0.42 | 0.00 | 84 | 1014.1 |
| 20260505075504 | 74 | 60 | 2.0 | 11.0 | 0.00 | 0.42 | 0.00 | 84 | 1014.0 |
| 20260505075216 | 74 | 61 | 4.0 | 11.0 | 0.00 | 0.42 | 0.00 | 84 | 1014.1 |
| 20260505074714 | 74 | 62 | 2.0 | 9.0 | 0.00 | 0.42 | 0.00 | 83 | 1014.2 |
| 20260505074004 | 74 | 67 | 4.0 | 8.0 | 0.00 | 0.42 | 0.00 | 82 | 1014.2 |
| 20260505073504 | 75 | 68 | 4.0 | 13.0 | 0.00 | 0.42 | 0.00 | 81 | 1014.1 |
| 20260505073004 | 75 | 63 | 3.0 | 13.0 | 0.00 | 0.42 | 0.00 | 81 | 1014.3 |
| 20260505072503 | 75 | 55 | 3.0 | 12.0 | 0.00 | 0.42 | 0.00 | 79 | 1014.2 |
| 20260505072004 | 75 | 55 | 1.0 | 10.0 | 0.00 | 0.42 | 0.00 | 79 | 1014.2 |
| 20260505071503 | 75 | 58 | 3.0 | 12.0 | 0.00 | 0.42 | 0.00 | 80 | 1014.2 |
| 20260505071003 | 75 | 59 | 6.0 | 12.0 | 0.00 | 0.42 | 0.00 | 79 | 1014.2 |
| 20260505070503 | 75 | 54 | 5.0 | 12.0 | 0.00 | 0.42 | 0.00 | 79 | 1014.2 |
| 20260505070005 | 75 | 52 | 5.0 | 12.0 | 0.00 | 0.42 | 0.00 | 79 | 1014.4 |
| 20260505065504 | 75 | 57 | 3.0 | 9.0 | 0.00 | 0.42 | 0.00 | 79 | 1014.4 |
| 20260505065003 | 75 | 56 | 3.0 | 9.0 | 0.00 | 0.42 | 0.00 | 79 | 1014.4 |
| 20260505064714 | 75 | 52 | 2.0 | 9.0 | 0.00 | 0.44 | 0.00 | 79 | 1014.4 |
| 20260505064003 | 75 | 59 | 3.0 | 9.0 | 0.00 | 0.47 | 0.00 | 79 | 1014.3 |
| 20260505063503 | 75 | 60 | 3.0 | 11.0 | 0.00 | 0.47 | 0.00 | 79 | 1014.3 |
| 20260505063004 | 75 | 62 | 4.0 | 11.0 | 0.00 | 0.47 | 0.00 | 79 | 1014.4 |
| 20260505062505 | 75 | 57 | 4.0 | 10.0 | 0.00 | 0.47 | 0.00 | 79 | 1014.6 |
| 20260505062004 | 75 | 51 | 4.0 | 10.0 | 0.00 | 0.47 | 0.00 | 79 | 1014.7 |
| 20260505061503 | 75 | 52 | 4.0 | 10.0 | 0.00 | 0.47 | 0.00 | 79 | 1014.9 |
| 20260505061004 | 75 | 53 | 3.0 | 9.0 | 0.00 | 0.47 | 0.00 | 79 | 1015.0 |
| 20260505060505 | 75 | 59 | 3.0 | 9.0 | 0.00 | 0.47 | 0.00 | 79 | 1014.9 |
| 20260505060005 | 75 | 63 | 3.0 | 9.0 | 0.00 | 0.47 | 0.00 | 79 | 1015.0 |
| 20260505055504 | 75 | 60 | 2.0 | 9.0 | 0.00 | 0.47 | 0.00 | 79 | 1014.9 |
| 20260505055003 | 75 | 58 | 3.0 | 10.0 | 0.00 | 0.47 | 0.00 | 79 | 1014.9 |
| 20260505054504 | 75 | 62 | 4.0 | 11.0 | 0.00 | 0.47 | 0.00 | 79 | 1014.8 |
| 20260505054004 | 75 | 68 | 5.0 | 11.0 | 0.00 | 0.47 | 0.00 | 78 | 1014.9 |
| 20260505053716 | 75 | 66 | 3.0 | 11.0 | 0.00 | 0.47 | 0.00 | 78 | 1015.0 |
| 20260505053003 | 75 | 65 | 3.0 | 11.0 | 0.00 | 0.47 | 0.00 | 78 | 1015.1 |
| 20260505052504 | 75 | 66 | 4.0 | 11.0 | 0.00 | 0.47 | 0.00 | 78 | 1015.2 |
| 20260505052004 | 75 | 57 | 6.0 | 11.0 | 0.00 | 0.47 | 0.00 | 78 | 1015.4 |
| 20260505051504 | 75 | 55 | 3.0 | 9.0 | 0.00 | 0.47 | 0.00 | 78 | 1015.3 |
| 20260505051004 | 75 | 60 | 2.0 | 9.0 | 0.00 | 0.47 | 0.00 | 77 | 1015.4 |
| 20260505050504 | 75 | 57 | 3.0 | 9.0 | 0.00 | 0.47 | 0.00 | 77 | 1015.4 |
| 20260505041506 | 74 | 63 | 4.0 | 11.0 | 0.00 | 0.47 | 0.00 | 77 | 1015.7 |
| 20260505041004 | 74 | 64 | 4.0 | 11.0 | 0.00 | 0.47 | 0.00 | 78 | 1015.8 |
| 20260505040504 | 74 | 61 | 2.0 | 8.0 | 0.00 | 0.47 | 0.00 | 77 | 1015.9 |
| 20260505040217 | 74 | 57 | 3.0 | 9.0 | 0.00 | 0.47 | 0.00 | 77 | 1015.9 |
| 20260505035505 | 74 | 58 | 2.0 | 9.0 | 0.00 | 0.48 | 0.47 | 77 | 1015.9 |
| 20260505035213 | 74 | 58 | 2.0 | 8.0 | 0.00 | 0.48 | 0.47 | 77 | 1015.7 |
| 20260505034503 | 74 | 57 | 3.0 | 10.0 | 0.00 | 0.48 | 0.47 | 77 | 1015.6 |
| 20260505034003 | 74 | 66 | 4.0 | 9.0 | 0.00 | 0.49 | 0.47 | 77 | 1015.7 |
| 20260505033504 | 74 | 63 | 3.0 | 9.0 | 0.00 | 0.49 | 0.47 | 77 | 1015.9 |
| 20260505033215 | 74 | 57 | 3.0 | 9.0 | 0.00 | 0.49 | 0.47 | 78 | 1015.9 |
| 20260505032504 | 75 | 54 | 4.0 | 9.0 | 0.00 | 0.49 | 0.47 | 77 | 1015.8 |
| 20260505032004 | 75 | 54 | 2.0 | 8.0 | 0.00 | 0.49 | 0.47 | 77 | 1015.7 |
| 20260505031504 | 75 | 55 | 3.0 | 8.0 | 0.00 | 0.49 | 0.47 | 77 | 1015.7 |
| 20260505031004 | 75 | 61 | 3.0 | 11.0 | 0.00 | 0.49 | 0.47 | 77 | 1015.5 |
| 20260505030715 | 75 | 61 | 2.0 | 11.0 | 0.00 | 0.49 | 0.47 | 77 | 1015.7 |
| 20260505030004 | 75 | 57 | 5.0 | 11.0 | 0.00 | 0.49 | 0.47 | 77 | 1015.6 |
| 20260505025504 | 75 | 56 | 4.0 | 11.0 | 0.00 | 0.49 | 0.47 | 76 | 1015.7 |
| 20260505025003 | 75 | 60 | 3.0 | 11.0 | 0.00 | 0.49 | 0.47 | 76 | 1015.8 |
| 20260505024503 | 75 | 59 | 6.0 | 11.0 | 0.00 | 0.49 | 0.47 | 76 | 1016.0 |
| 20260505024004 | 75 | 57 | 3.0 | 10.0 | 0.00 | 0.49 | 0.47 | 77 | 1016.0 |
| 20260505023504 | 75 | 56 | 4.0 | 10.0 | 0.00 | 0.49 | 0.47 | 77 | 1015.9 |
| 20260505023216 | 75 | 57 | 3.0 | 10.0 | 0.00 | 0.49 | 0.47 | 77 | 1015.8 |
| 20260505022714 | 75 | 62 | 2.0 | 7.0 | 0.00 | 0.49 | 0.47 | 77 | 1015.8 |
| 20260505022004 | 75 | 65 | 1.0 | 11.0 | 0.00 | 0.49 | 0.47 | 77 | 1015.8 |
| 20260505021505 | 75 | 64 | 2.0 | 11.0 | 0.00 | 0.49 | 0.47 | 76 | 1015.8 |
| 20260505021004 | 75 | 63 | 3.0 | 12.0 | 0.00 | 0.49 | 0.47 | 76 | 1015.7 |
| 20260505020716 | 75 | 62 | 4.0 | 12.0 | 0.00 | 0.49 | 0.47 | 76 | 1015.7 |
| 20260505020214 | 75 | 64 | 4.0 | 11.0 | 0.00 | 0.49 | 0.47 | 76 | 1015.7 |
| 20260505015503 | 75 | 59 | 3.0 | 9.0 | 0.00 | 0.49 | 0.47 | 76 | 1015.9 |
| 20260505015004 | 75 | 53 | 3.0 | 9.0 | 0.00 | 0.49 | 0.47 | 76 | 1016.1 |
| 20260505014503 | 75 | 56 | 4.0 | 10.0 | 0.00 | 0.49 | 0.47 | 76 | 1015.8 |
| 20260505014003 | 75 | 62 | 2.0 | 10.0 | 0.00 | 0.49 | 0.47 | 75 | 1015.6 |
| 20260505013503 | 75 | 67 | 2.0 | 10.0 | 0.00 | 0.49 | 0.47 | 75 | 1015.6 |
| 20260505013004 | 75 | 64 | 3.0 | 11.0 | 0.00 | 0.49 | 0.47 | 75 | 1015.6 |
| 20260505012715 | 75 | 66 | 2.0 | 11.0 | 0.00 | 0.49 | 0.47 | 75 | 1015.5 |
| 20260505012003 | 75 | 76 | 5.0 | 12.0 | 0.00 | 0.49 | 0.47 | 76 | 1015.5 |
| 20260505011506 | 75 | 67 | 4.0 | 12.0 | 0.00 | 0.49 | 0.47 | 76 | 1015.4 |
| 20260505011003 | 75 | 59 | 4.0 | 10.0 | 0.00 | 0.49 | 0.47 | 76 | 1015.2 |
| 20260505010716 | 75 | 58 | 5.0 | 10.0 | 0.00 | 0.49 | 0.47 | 75 | 1015.2 |
| 20260505010214 | 75 | 66 | 4.0 | 10.0 | 0.00 | 0.49 | 0.47 | 76 | 1015.3 |
| 20260505005503 | 75 | 69 | 4.0 | 11.0 | 0.00 | 0.49 | 0.47 | 75 | 1015.3 |
| 20260505005004 | 75 | 65 | 3.0 | 11.0 | 0.00 | 0.49 | 0.47 | 75 | 1015.3 |
| 20260505004504 | 75 | 71 | 3.0 | 9.0 | 0.00 | 0.49 | 0.47 | 76 | 1015.3 |
| 20260505004003 | 75 | 74 | 3.0 | 9.0 | 0.00 | 0.49 | 0.47 | 76 | 1015.3 |
| 20260505003504 | 75 | 70 | 3.0 | 11.0 | 0.00 | 0.49 | 0.47 | 75 | 1015.2 |
| 20260505003003 | 75 | 68 | 4.0 | 15.0 | 0.00 | 0.49 | 0.47 | 75 | 1015.1 |
| 20260505002503 | 75 | 70 | 2.0 | 15.0 | 0.00 | 0.49 | 0.47 | 75 | 1015.2 |
| 20260505002005 | 75 | 67 | 4.0 | 14.0 | 0.00 | 0.49 | 0.47 | 75 | 1015.2 |
| 20260505001503 | 75 | 66 | 3.0 | 15.0 | 0.00 | 0.49 | 0.47 | 75 | 1015.2 |
| 20260505001004 | 75 | 68 | 7.0 | 15.0 | 0.00 | 0.49 | 0.47 | 74 | 1015.1 |
| 20260505000505 | 75 | 71 | 3.0 | 11.0 | 0.00 | 0.49 | 0.47 | 74 | 1015.0 |
| 20260505000004 | 75 | 72 | 6.0 | 12.0 | 0.00 | 0.49 | 0.47 | 74 | 1015.0 |
| 20260504235503 | 75 | 68 | 3.0 | 12.0 | 0.00 | 0.49 | 0.47 | 74 | 1015.0 |
| 20260504235003 | 75 | 78 | 4.0 | 13.0 | 0.00 | 0.49 | 0.47 | 74 | 1014.9 |
| 20260504234714 | 75 | 78 | 5.0 | 13.0 | 0.00 | 0.49 | 0.47 | 73 | 1014.9 |
| 20260504234003 | 76 | 68 | 4.0 | 11.0 | 0.00 | 0.50 | 0.47 | 74 | 1014.9 |
| 20260504233504 | 76 | 75 | 6.0 | 11.0 | 0.00 | 0.52 | 0.47 | 73 | 1014.9 |
| 20260504233005 | 76 | 70 | 5.0 | 14.0 | 0.00 | 0.52 | 0.47 | 73 | 1014.9 |
| 20260504232716 | 76 | 65 | 6.0 | 14.0 | 0.00 | 0.52 | 0.47 | 73 | 1014.9 |
| 20260504232004 | 76 | 61 | 6.0 | 12.0 | 0.00 | 0.52 | 0.47 | 73 | 1014.9 |
| 20260504231503 | 76 | 60 | 2.0 | 13.0 | 0.00 | 0.52 | 0.47 | 74 | 1014.9 |
| 20260504231004 | 76 | 62 | 6.0 | 13.0 | 0.00 | 0.52 | 0.47 | 73 | 1014.6 |
| 20260504230504 | 76 | 63 | 6.0 | 13.0 | 0.00 | 0.52 | 0.47 | 73 | 1014.6 |
| 20260504230003 | 76 | 64 | 6.0 | 13.0 | 0.00 | 0.52 | 0.47 | 73 | 1014.7 |
| 20260504225505 | 76 | 64 | 6.0 | 13.0 | 0.00 | 0.52 | 0.47 | 73 | 1014.7 |
| 20260504225003 | 76 | 63 | 3.0 | 12.0 | 0.00 | 0.52 | 0.47 | 73 | 1014.7 |
| 20260504224503 | 76 | 64 | 4.0 | 13.0 | 0.00 | 0.52 | 0.47 | 73 | 1014.7 |
| 20260504224004 | 76 | 75 | 8.0 | 13.0 | 0.00 | 0.52 | 0.47 | 72 | 1014.7 |
| 20260504223503 | 76 | 82 | 2.0 | 12.0 | 0.00 | 0.52 | 0.47 | 74 | 1014.7 |
| 20260504223004 | 76 | 77 | 5.0 | 13.0 | 0.00 | 0.52 | 0.47 | 73 | 1014.6 |
| 20260504222716 | 76 | 76 | 7.0 | 13.0 | 0.00 | 0.52 | 0.47 | 73 | 1014.6 |
| 20260504222214 | 76 | 70 | 5.0 | 12.0 | 0.00 | 0.52 | 0.47 | 72 | 1014.7 |
| 20260504221503 | 76 | 62 | 3.0 | 11.0 | 0.00 | 0.52 | 0.47 | 72 | 1015.1 |
| 20260504221003 | 77 | 62 | 3.0 | 13.0 | 0.00 | 0.52 | 0.47 | 72 | 1015.2 |
| 20260504220503 | 77 | 66 | 6.0 | 13.0 | 0.00 | 0.52 | 0.47 | 71 | 1015.2 |
| 20260504220216 | 77 | 66 | 3.0 | 11.0 | 0.00 | 0.52 | 0.47 | 71 | 1015.2 |
| 20260504215503 | 77 | 57 | 6.0 | 13.0 | 0.00 | 0.52 | 0.47 | 69 | 1014.8 |
| 20260504215003 | 78 | 52 | 5.0 | 20.0 | 0.00 | 0.52 | 0.47 | 70 | 1014.9 |
| 20260504214504 | 78 | 59 | 6.0 | 20.0 | 0.00 | 0.52 | 0.47 | 70 | 1014.7 |
| 20260504214003 | 78 | 66 | 11.0 | 18.0 | 0.00 | 0.52 | 0.47 | 69 | 1014.7 |
| 20260504213504 | 78 | 66 | 3.0 | 15.0 | 0.00 | 0.52 | 0.47 | 71 | 1014.7 |
| 20260504213214 | 78 | 65 | 8.0 | 15.0 | 0.00 | 0.52 | 0.47 | 70 | 1014.7 |
| 20260504212504 | 78 | 57 | 8.0 | 20.0 | 0.00 | 0.52 | 0.47 | 70 | 1014.7 |
| 20260504212215 | 78 | 56 | 5.0 | 20.0 | 0.00 | 0.52 | 0.47 | 71 | 1014.7 |
| 20260504211503 | 77 | 57 | 4.0 | 16.0 | 0.00 | 0.52 | 0.47 | 71 | 1014.8 |
| 20260504211003 | 77 | 61 | 5.0 | 16.0 | 0.00 | 0.52 | 0.47 | 72 | 1014.9 |
| 20260504210503 | 77 | 64 | 10.0 | 16.0 | 0.00 | 0.52 | 0.47 | 72 | 1014.9 |
| 20260504210004 | 77 | 66 | 7.0 | 16.0 | 0.00 | 0.52 | 0.47 | 72 | 1015.1 |
| 20260504205504 | 77 | 70 | 4.0 | 18.0 | 0.00 | 0.52 | 0.47 | 73 | 1015.1 |
| 20260504205003 | 76 | 75 | 5.0 | 18.0 | 0.00 | 0.52 | 0.47 | 73 | 1015.2 |
| 20260504204503 | 76 | 67 | 6.0 | 20.0 | 0.00 | 0.52 | 0.47 | 73 | 1015.1 |
| 20260504204004 | 76 | 58 | 9.0 | 20.0 | 0.00 | 0.52 | 0.47 | 72 | 1015.2 |
| 20260504203506 | 76 | 62 | 6.0 | 15.0 | 0.00 | 0.52 | 0.47 | 73 | 1015.1 |
| 20260504203004 | 76 | 69 | 5.0 | 12.0 | 0.00 | 0.52 | 0.47 | 73 | 1015.2 |
| 20260504202506 | 76 | 71 | 5.0 | 18.0 | 0.00 | 0.52 | 0.47 | 73 | 1015.2 |
| 20260504202004 | 77 | 68 | 9.0 | 18.0 | 0.00 | 0.52 | 0.47 | 71 | 1015.4 |
| 20260504201714 | 77 | 71 | 7.0 | 15.0 | 0.00 | 0.52 | 0.47 | 71 | 1015.3 |
| 20260504201217 | 77 | 73 | 4.0 | 15.0 | 0.00 | 0.52 | 0.47 | 72 | 1015.3 |
| 20260504200504 | 77 | 69 | 6.0 | 16.0 | 0.00 | 0.52 | 0.47 | 70 | 1015.3 |
| 20260504200004 | 78 | 64 | 7.0 | 16.0 | 0.00 | 0.52 | 0.47 | 72 | 1015.4 |
| 20260504195504 | 78 | 63 | 6.0 | 18.0 | 0.00 | 0.52 | 0.47 | 72 | 1015.4 |
| 20260504195003 | 78 | 72 | 8.0 | 18.0 | 0.00 | 0.52 | 0.47 | 71 | 1015.3 |
| 20260504194716 | 78 | 79 | 7.0 | 18.0 | 0.00 | 0.52 | 0.47 | 71 | 1015.3 |
| 20260504194005 | 78 | 71 | 8.0 | 16.0 | 0.00 | 0.52 | 0.47 | 73 | 1015.5 |
| 20260504193504 | 78 | 68 | 5.0 | 17.0 | 0.00 | 0.52 | 0.47 | 72 | 1015.5 |
| 20260504193004 | 78 | 60 | 10.0 | 17.0 | 0.00 | 0.52 | 0.47 | 72 | 1015.6 |
| 20260504192504 | 78 | 61 | 4.0 | 16.0 | 0.00 | 0.52 | 0.47 | 73 | 1015.6 |
| 20260504192216 | 78 | 63 | 8.0 | 16.0 | 0.00 | 0.52 | 0.47 | 71 | 1015.6 |
| 20260504191503 | 78 | 65 | 7.0 | 14.0 | 0.00 | 0.52 | 0.47 | 71 | 1015.8 |
| 20260504191217 | 79 | 65 | 5.0 | 18.0 | 0.00 | 0.52 | 0.47 | 71 | 1015.7 |
| 20260504190504 | 78 | 59 | 7.0 | 18.0 | 0.00 | 0.53 | 0.47 | 72 | 1015.7 |
| 20260504190004 | 78 | 59 | 7.0 | 18.0 | 0.00 | 0.53 | 0.47 | 73 | 1015.7 |
| 20260504185504 | 78 | 57 | 9.0 | 18.0 | 0.00 | 0.53 | 0.47 | 74 | 1015.8 |
| 20260504185214 | 78 | 61 | 7.0 | 17.0 | 0.00 | 0.53 | 0.47 | 77 | 1015.7 |
| 20260504184503 | 76 | 60 | 7.0 | 18.0 | 0.00 | 0.53 | 0.47 | 77 | 1015.8 |
| 20260504184215 | 76 | 57 | 6.0 | 18.0 | 0.00 | 0.53 | 0.47 | 78 | 1016.0 |
| 20260504183503 | 75 | 60 | 7.0 | 17.0 | 0.00 | 0.53 | 0.47 | 78 | 1016.0 |
| 20260504183005 | 75 | 60 | 9.0 | 17.0 | 0.00 | 0.53 | 0.47 | 77 | 1016.1 |
| 20260504182504 | 75 | 51 | 5.0 | 17.0 | 0.00 | 0.53 | 0.47 | 79 | 1016.2 |
| 20260504182005 | 75 | 53 | 3.0 | 17.0 | 0.01 | 0.53 | 0.47 | 78 | 1016.2 |
| 20260504181503 | 75 | 60 | 8.0 | 15.0 | 0.01 | 0.54 | 0.47 | 78 | 1016.2 |
| 20260504181005 | 75 | 60 | 5.0 | 15.0 | 0.01 | 0.54 | 0.47 | 79 | 1016.1 |
| 20260504180504 | 74 | 57 | 5.0 | 15.0 | 0.01 | 0.54 | 0.47 | 79 | 1016.5 |
| 20260504180004 | 74 | 56 | 5.0 | 15.0 | 0.01 | 0.54 | 0.47 | 78 | 1016.4 |
| 20260504175505 | 74 | 57 | 5.0 | 15.0 | 0.01 | 0.54 | 0.47 | 79 | 1016.3 |
| 20260504175004 | 74 | 61 | 5.0 | 13.0 | 0.01 | 0.54 | 0.47 | 79 | 1016.3 |
| 20260504174503 | 74 | 61 | 6.0 | 12.0 | 0.01 | 0.54 | 0.47 | 79 | 1016.4 |
| 20260504174216 | 74 | 57 | 7.0 | 15.0 | 0.01 | 0.54 | 0.47 | 80 | 1016.4 |
| 20260504173504 | 74 | 60 | 6.0 | 16.0 | 0.01 | 0.54 | 0.47 | 81 | 1016.5 |
| 20260504173004 | 74 | 59 | 9.0 | 16.0 | 0.01 | 0.54 | 0.47 | 81 | 1016.5 |
| 20260504172504 | 74 | 52 | 9.0 | 14.0 | 0.01 | 0.54 | 0.47 | 80 | 1016.5 |
| 20260504172003 | 74 | 53 | 7.0 | 17.0 | 0.00 | 0.53 | 0.46 | 79 | 1016.4 |
| 20260504171503 | 75 | 57 | 8.0 | 17.0 | 0.00 | 0.53 | 0.46 | 78 | 1016.5 |
| 20260504171005 | 75 | 53 | 8.0 | 14.0 | 0.00 | 0.53 | 0.46 | 78 | 1016.5 |
| 20260504170504 | 75 | 56 | 4.0 | 16.0 | 0.01 | 0.53 | 0.46 | 79 | 1016.5 |
| 20260504151005 | 78 | 52 | 7.0 | 15.0 | 0.00 | 0.51 | 0.44 | 74 | 1016.7 |
| 20260504150505 | 78 | 52 | 4.0 | 15.0 | 0.00 | 0.51 | 0.44 | 74 | 1016.7 |
| 20260504141003 | 76 | 44 | 5.0 | 10.0 | 0.00 | 0.52 | 0.44 | 82 | 1016.3 |
| 20260504140504 | 76 | 30 | 2.0 | 11.0 | 0.00 | 0.52 | 0.44 | 81 | 1016.3 |
| 20260504130714 | 73 | 30 | 5.0 | 14.0 | 0.00 | 0.52 | 0.44 | 89 | 1015.7 |